Zurück zum Katalog

FALCON 9 R/B

AktivHEO
NORAD 55972·ROCKET BODY·🇺🇸 United States

Gestartet Mar 17, 2023 von Cape Canaveral Space Force Station

Loading…

Nächste Überflüge (nächste 24 Stunden)

TLE

AktuellSource: Space-Track

Epoche: Sep 14, 2026, 17:25 UTC

1 55972U 23038C   26257.72634157  .00001248  00000-0  74430-3 0  9997
2 55972  26.9466  73.6178 5824210  55.3589 346.6929  4.23739806 53731

Verfolge FALCON 9 R/B in Echtzeit mit AllMySat

Download on the App Store